Regional Weather Roundup
Issued by NWS Albany, NY

Home | Current Version | Previous Version | Text Only | Print | Product List | Glossary On
Versions: 1 2 3 4 5 6 7 8 9 10 11 12 13 14 15 16 17 18 19 20 21 22 23 24 25 26 27 28 29 30 31 32 33 34 35 36 37 38 39 40 41 42 43 44
000
ASUS41 KALY 282010
RWRALY

NEW YORK STATE HOURLY WEATHER ROUNDUP
NATIONAL WEATHER SERVICE ALBANY NY
300 PM EST WED JAN 28 2015

NOTE: "FAIR" INDICATES FEW OR NO CLOUDS BELOW 12,000 FEET WITH NO
SIGNIFICANT WEATHER AND/OR NO OBSTRUCTIONS TO VISIBILITY.

NYZ032-033-038>043-046>054-057>066-NYZ062>081-282100-
EAST


CITY           SKY/WX    TMP DP  RH WIND       PRES   REMARKS
ALBANY         MOSUNNY   22   0  38 N13       30.14R WCI  10
GLENS FALLS    SUNNY     19   3  49 E5        30.14R WCI  12
POUGHKEEPSIE   SUNNY     29   6  38 N10       30.09R WCI  20
NEWBURGH       SUNNY     30  10  43 N9        30.07R WCI  22
WHITE PLAINS   SUNNY     30   8  39 NW20G25   30.04R WCI  17
ISLIP          MOSUNNY   28  11  48 NW15G24   30.03R WCI  16
NEW YORK CITY  SUNNY     33  10  38 NW13      30.07R WCI  24
CENTRAL PARK   SUNNY     33   8  35 NW8       30.09R WCI  26
$$

NYZ005>009-017-018-044>046-055-056-282100-
CENTRAL


CITY           SKY/WX    TMP DP  RH WIND       PRES   REMARKS
FULTON         SUNNY     21   4  47 NW13      30.25R WCI   9
SYRACUSE       SUNNY     22   4  46 NW15      30.24R WCI   9
ROME           SUNNY     21  -1  38 NW13      30.22R WCI   9
ELMIRA         SUNNY     30   4  33 N7        30.20R WCI  23
BINGHAMTON     SUNNY     22   3  44 N13G21    30.11R WCI  10
MONTICELLO     SUNNY     25   1  36 NW17G25   30.05S WCI  11
$$

NYZ026>034-041>043-282100-
NORTH


CITY           SKY/WX    TMP DP  RH WIND       PRES   REMARKS
WATERTOWN      SUNNY     19  -4  36 SW6       30.26R WCI  11
FORT DRUM      NOT AVBL
MASSENA        SUNNY     17  -8  32 SW7       30.24S WCI   8
SARANAC LAKE   SUNNY     19  -8  30 VRB6      30.06R WCI  11
PLATTSBURGH    SUNNY     22  -5  30 N10       30.17R WCI  11
$$

NYZ001>004-010>016-019>021-282100-
WEST


CITY           SKY/WX    TMP DP  RH WIND       PRES   REMARKS
NIAGARA FALLS  MOSUNNY   24  11  57 SW7       30.28S WCI  16
BUFFALO        MOSUNNY   20  11  68 SW10      30.28S WCI   9
DUNKIRK        SUNNY     22  12  65 SW3       30.29F
JAMESTOWN      SUNNY     25   7  46 CALM      30.21F
WELLSVILLE     SUNNY     24   0  35 N7        30.17R WCI  16
ROCHESTER      SUNNY     26   6  42 W9        30.27S WCI  17
PENN YAN       SUNNY     25   3  38 NW10      30.22R WCI  15
$$

             KEY
       WCI = WIND CHILL INDEX
       VSB = VISIBILITY
       HX  = HEAT INDEX
$$


USA.gov is the U.S. government's official web portal to all federal, state and local government web resources and services.